Retour au catalogue

STARLINK-5513

ActifCommunicationsVLEO
NORAD 57251·PAYLOAD·🇺🇸 United States

Lancé Jul 7, 2023 depuis Vandenberg Space Force Base

Loading…

Prochains Passages (prochaines 24 heures)

TLE

FraisSource: CelesTrak SupGP

Époque: Sep 15, 2026, 01:48 UTC

1 57251C 23094AK  26258.07548611 -.00051400  00000+0 -18617-2 0  2587
2 57251  43.0018  30.1370 0001634 263.0052 197.3717 15.27604176    19

Suivez STARLINK-5513 en temps réel avec AllMySat

Download on the App Store